ギブス彗星

P/2007 R3 ( Gibbs )

English version
Home page
Updated on December 30, 2007

---------------------------------------------------------------------

・ プロフィール

発見日 2007年9月14日
発見光度 18.9等
発見者 A. R. Gibbs (Mt. Lemmon Survey)

・ 軌道要素

T 2007 July 6.3442 TT                                   MPC
q   2.500005             (2000.0)            P               Q
n   0.1112184      Peri.  312.1101      +0.9512308      +0.3066843
a   4.282376       Node    30.0749      -0.2598306      +0.8546259
e   0.416211       Incl.    3.8027      -0.1662768      +0.4189980
P   8.86
From 106 observations 2007 Sept. 14-Nov. 5.

・ 光度変化

        m1 = 13.5 + 5 logΔ + 10.0 log r

---------------------------------------------------------------------

軌道要素はM.P.E.C. 2007-V52に掲載されたものです。
光度グラフはComet for Windowsで作成したものです。

---------------------------------------------------------------------

Copyright(C) Seiichi Yoshida (comet@aerith.net). All rights reserved.